[[{"header":{"parameterUnit":"m.s-1","parameterCategory":1,"la1":30.2991,"la2":30.254,"lo1":-89.0895,"lo2":-89.0444,"dy":0.0017,"dx":0.0017,"nx":28,"ny":28,"refTime":"2023-11-06T09:00:00:Z","depth":0,"parameterNumber":2,"parameterNumberName":"U-component_of_WINDS"},"data":[0,0,0,0,0,0,0,0,0,0,0,0,0,0,0,0,0,0,0,0,0,0,0,0,0,0,0,0,0,0,0,0,0,0,0,0,0,0,0,0,0,0,0,0,0,0,0,0,0,0,0,0,0,0,0,0,0,0,0.1185,0.1185,0,0.1187,0.1187,0.1187,0.1261,0.1263,0.1265,0.1267,0.1268,0.1266,0.1264,0,0,0,0,0,0,0,0,0,0,0,0,0,0.1244,0.1242,0.1185,0.1185,0.1185,0.1187,0.1187,0.1187,0.1261,0.1263,0.1266,0.1268,0.1268,0.1266,0.1264,0,0,0,0,0,0,0,0,0,0,0,0,0,0.1229,0.1242,0.1185,0.1222,0.1226,0.1187,0.1187,0.1187,0.1261,0.1263,0.1266,0.1269,0.1269,0.1266,0.1264,0.1189,0,0,0.1255,0.1254,0,0,0,0,0,0,0,0,0.123,0.1227,0.1217,0.122,0.1223,0.1227,0.1208,0.1188,0.126,0.1247,0.1267,0.127,0.1252,0.1251,0.1245,0.1189,0.1189,0.1255,0.1254,0.1252,0.1252,0,0,0,0,0,0,0,0.1231,0.1227,0.1186,0.1216,0.122,0.1239,0.124,0.1205,0.1233,0.1249,0.1254,0.1253,0.1254,0.1247,0.1245,0.1189,0.1255,0.1253,0.1251,0.125,0.1074,0.1071,0,0,0,0,0,0,0.1227,0.1228,0.1186,0.1186,0.1234,0.1235,0.1236,0.1223,0.1234,0.1238,0.1251,0.1257,0.125,0.1248,0.1245,0.1159,0.1252,0.125,0.1248,0.1077,0.1073,0.107,0,0,0,0,0,0,0.1228,0.1223,0.1186,0.1208,0.1205,0.1231,0.1215,0.1221,0.1214,0.1235,0.1241,0.1238,0.1252,0.1249,0.1203,0.116,0.1249,0.1246,0.1081,0.1076,0.1071,0.0986,0,0,0,0,0,0,0.1229,0.1222,0.1194,0.1207,0.1203,0.1143,0.1213,0.1219,0.121,0.1218,0.1225,0.1229,0.1254,0.1207,0.12,0.1158,0.1244,0.1084,0.1078,0.1073,0.0993,0.0979,0.0967,0,0,0,0,0,0.1231,0.117,0.1193,0.1187,0.1169,0.114,0.1138,0.1169,0.1206,0.1178,0.1192,0.1229,0.1166,0.1201,0.1195,0.1151,0.1087,0.108,0.1073,0.0998,0.0982,0.0967,0,0,0,0,0,0,0.115,0.1172,0.1198,0.1139,0.1137,0.1153,0.1118,0.115,0.1138,0.1145,0.1183,0.1184,0.1132,0.1137,0.1176,0.108,0.1133,0.1125,0.1078,0.1063,0.105,0.105,0.1242,0,0,0,0,0,0.1126,0.1101,0.1121,0.1067,0.1065,0.1092,0.108,0.1104,0.1104,0.1104,0.1114,0.1112,0.1092,0.1078,0.1061,0.0994,0.0997,0.0961,0.0948,0.0938,0.093,0.0895,0.088,0.1047,0.1047,0.1047,0,0,0.1074,0.1083,0.1065,0.1051,0.1053,0.1026,0.1091,0.106,0.104,0.1099,0.1056,0.1063,0.1064,0.1007,0.0983,0.101,0.0884,0.0929,0.092,0.0918,0.0886,0.0871,0.0856,0.1042,0.1043,0.1044,0,0,0.0967,0.0971,0.0927,0.0928,0.093,0.0948,0.0938,0.0949,0.0957,0.0914,0.0958,0.0936,0.09,0.0899,0.0893,0.0787,0.0821,0.078,0.0713,0.0679,0.0666,0.0654,0.0616,0.0602,0.0772,0.0772,0.0772,0,0.0902,0.0864,0.09,0.0866,0.0859,0.0912,0.0867,0.0866,0.0862,0.0856,0.0887,0.0844,0.0848,0.0792,0.0766,0.076,0.0749,0.0779,0.0665,0.0654,0.0644,0.0608,0.0593,0.0767,0.0768,0.0768,0.0769,0,0.0785,0.0758,0.0722,0.0718,0.0706,0.0667,0.0696,0.0681,0.0706,0.0721,0.0678,0.0685,0.067,0.0659,0.0682,0.0606,0.0623,0.0659,0.0713,0.0622,0.0589,0.0575,0.076,0.0762,0.0763,0.0764,0,0,0.0625,0.0642,0.0628,0.0627,0.0635,0.0614,0.0578,0.0564,0.055,0.0546,0.0516,0.0485,0.0519,0.0513,0.0537,0.0508,0.0423,0.0547,0.0548,0.0523,0.0338,0.0311,0.0294,0.0446,0.0443,0.0441,0.0338,0,0.052,0.0459,0.0491,0.0426,0.0401,0.0453,0.0421,0.0422,0.0435,0.0416,0.0431,0.0409,0.0455,0.0452,0.0425,0.0439,0.0386,0.0447,0.0417,0.0416,0.0415,0.0277,0.0247,0.015,0.0326,0.0323,0.0322,0,0.039,0.0382,0.0314,0.0327,0.0318,0.0289,0.0279,0.0261,0.0263,0.0275,0.0269,0.0301,0.0266,0.032,0.0272,0.0313,0.0303,0.0308,0.0305,0.0303,0.0363,0.027,0.0119,0.0104,0.0302,0.0303,0.0305,0,0.028,0.0251,0.0208,0.0205,0.0219,0.0198,0.0202,0.0208,0.0198,0.0189,0.0183,0.0171,0.0163,0.0153,0.0181,0.0218,0.0129,0.0185,0.0137,0.0136,0.0115,0.0116,-0.004,0.011,0.011,0.011,0.0111,0,0.0159,0.0116,0.0158,0.0131,0.0084,0.0121,0.0073,0.0084,0.0088,0.0064,0.0107,0.0083,0.0122,0.0101,0.0123,0.008,0.0076,0.0085,0.0091,0.008,0.0079,0.0074,0.0081,0.0106,0.0107,0.0108,0.0109,0,0.0027,0.0054,0.0009,0.0027,0.003,-0.0005,0.001,-0.0015,0.0002,-0.0029,-0.0034,-0.0008,-0.0029,-0.0002,-0.0022,-0.0007,-0.0066,-0.0049,-0.0067,-0.0062,-0.0112,-0.0108,-0.0278,-0.0298,-0.0135,-0.0136,-0.0138,0,-0.0052,-0.0084,-0.007,-0.0082,-0.008,-0.0101,-0.011,-0.0075,-0.0086,-0.0086,-0.011,-0.0128,-0.014,-0.0177,-0.0159,-0.0174,-0.0158,-0.0216,-0.016,-0.0169,-0.0159,-0.0158,-0.0161,-0.0228,-0.023,-0.0232,-0.0233,0,-0.0196,-0.018,-0.0195,-0.0205,-0.0217,-0.0224,-0.0227,-0.024,-0.0203,-0.0218,-0.0239,-0.0248,-0.0267,-0.0285,-0.0294,-0.029,-0.0256,-0.025,-0.0262,-0.0274,-0.0283,-0.0279,-0.0099,-0.0247,-0.0246,-0.0245,-0.0244,-0.0243,-0.0304,-0.033,-0.0323,-0.0341,-0.0339,-0.0343,-0.0365,-0.035,-0.0366,-0.0378,-0.0356,-0.0382,-0.0378,-0.0387,-0.0386,-0.0407,-0.0382,-0.0399,-0.0403,-0.0409,-0.0416,-0.0279,-0.0408,-0.0408,-0.0407,-0.0407,-0.0407,0,-0.0446,-0.0438,-0.0455,-0.046,-0.0474,-0.0439,-0.044,-0.0454,-0.0478,-0.0476,-0.0489,-0.0512,-0.0529,-0.0513,-0.0527,-0.0546,-0.0531,-0.0551,-0.055,-0.0549,-0.0438,-0.0426,-0.0563,-0.0563,-0.0563,-0.0563,-0.0563,-0.0563,-0.0521,-0.0563,-0.0546,-0.0586,-0.0579,-0.0603,-0.0607,-0.0611,-0.0609,-0.0637,-0.0651,-0.0639,-0.0632,-0.0644,-0.0658,-0.0653,-0.066,-0.0686,-0.0676,-0.0572,-0.0557,-0.0543,-0.0531,-0.0688,-0.0688,-0.0785,-0.0786,-0.0787]},{"header":{"parameterUnit":"m.s-1","parameterCategory":1,"la1":30.2991,"la2":30.254,"lo1":-89.0895,"lo2":-89.0444,"dy":0.0017,"dx":0.0017,"nx":28,"ny":28,"refTime":"2023-11-06T09:00:00:Z","depth":0,"parameterNumber":3,"parameterNumberName":"V-component_of_WINDS"},"data":[0,0,0,0,0,0,0,0,0,0,0,0,0,0,0,0,0,0,0,0,0,0,0,0,0,0,0,0,0,0,0,0,0,0,0,0,0,0,0,0,0,0,0,0,0,0,0,0,0,0,0,0,0,0,0,0,0,0,2.492,2.492,0,2.4903,2.4902,2.4902,2.4965,2.4966,2.4968,2.497,2.4943,2.4941,2.4939,0,0,0,0,0,0,0,0,0,0,0,0,0,2.5002,2.5,2.492,2.492,2.492,2.4903,2.4902,2.4902,2.4964,2.4967,2.4969,2.4971,2.4944,2.4941,2.4938,0,0,0,0,0,0,0,0,0,0,0,0,0,2.4973,2.5,2.4921,2.4949,2.4952,2.4903,2.4902,2.4902,2.4964,2.4967,2.4969,2.4972,2.4945,2.4942,2.4938,2.4858,0,0,2.4927,2.4925,0,0,0,0,0,0,0,0,2.4975,2.497,2.4945,2.4947,2.495,2.4939,2.4921,2.4887,2.4963,2.4959,2.497,2.4974,2.4939,2.4936,2.4926,2.4857,2.4856,2.4926,2.4924,2.4922,2.4921,0,0,0,0,0,0,0,2.4977,2.4971,2.4913,2.4945,2.4947,2.4961,2.496,2.4915,2.4933,2.4959,2.4964,2.4961,2.4941,2.493,2.4926,2.4855,2.4926,2.4923,2.4921,2.4919,2.472,2.4717,0,0,0,0,0,0,2.4976,2.4973,2.4914,2.4913,2.497,2.4957,2.4956,2.4939,2.4934,2.4936,2.4959,2.4964,2.4935,2.493,2.4925,2.4832,2.4922,2.4919,2.4917,2.4723,2.4719,2.4716,0,0,0,0,0,0,2.4977,2.497,2.4914,2.4944,2.4938,2.4953,2.4933,2.4937,2.4926,2.4934,2.4936,2.4945,2.4937,2.493,2.4875,2.4832,2.4917,2.4914,2.4726,2.4722,2.4717,2.4643,0,0,0,0,0,0,2.498,2.497,2.4942,2.4943,2.4936,2.4866,2.4931,2.4935,2.4921,2.4928,2.4921,2.4922,2.4938,2.488,2.4871,2.4828,2.4911,2.473,2.4724,2.4719,2.465,2.4637,2.4626,0,0,0,0,0,2.4982,2.4919,2.494,2.4932,2.4901,2.4864,2.4859,2.4882,2.4917,2.4887,2.4892,2.4922,2.4838,2.4874,2.4864,2.4819,2.4733,2.4726,2.4719,2.4655,2.4639,2.4626,0,0,0,0,0,0,2.4909,2.492,2.4943,2.4879,2.487,2.4874,2.4837,2.4864,2.4843,2.485,2.4876,2.4874,2.4813,2.4811,2.4851,2.4742,2.4791,2.4782,2.4746,2.4731,2.4719,2.472,2.4908,0,0,0,0,0,2.4886,2.4858,2.4868,2.481,2.4805,2.4822,2.4806,2.4825,2.4816,2.4811,2.4812,2.48,2.4771,2.4751,2.4724,2.465,2.4649,2.4614,2.4603,2.4593,2.4584,2.4545,2.4529,2.4693,2.4693,2.4693,0,0,2.4837,2.484,2.4819,2.4796,2.4791,2.4759,2.4818,2.4781,2.4757,2.4805,2.4754,2.4753,2.4742,2.4677,2.4648,2.4673,2.4539,2.4584,2.4576,2.4573,2.4536,2.4521,2.4507,2.4688,2.4689,2.469,0,0,2.4732,2.4731,2.4684,2.4679,2.4673,2.4685,2.4673,2.4674,2.4676,2.4626,2.4662,2.4632,2.4581,2.4572,2.456,2.4453,2.448,2.4444,2.438,2.4342,2.4329,2.4318,2.4279,2.4265,2.4435,2.4435,2.4435,0,2.467,2.4626,2.4655,2.4617,2.4605,2.465,2.4602,2.4594,2.4578,2.4568,2.4597,2.4536,2.4531,2.4464,2.4439,2.4428,2.4414,2.4444,2.4329,2.4318,2.4308,2.4271,2.4257,2.4431,2.4431,2.4432,2.4432,0,2.4551,2.452,2.4482,2.4469,2.4453,2.4409,2.443,2.441,2.443,2.4438,2.4386,2.4382,2.4356,2.4342,2.4359,2.4278,2.4294,2.4325,2.4375,2.4287,2.4253,2.424,2.4424,2.4426,2.4427,2.4428,0,0,2.4397,2.4403,2.4389,2.4384,2.4381,2.4356,2.4314,2.4292,2.4274,2.4261,2.4226,2.4183,2.4214,2.42,2.4217,2.4184,2.4099,2.422,2.422,2.4197,2.4009,2.3985,2.3968,2.4118,2.4115,2.4113,2.401,0,2.4293,2.4225,2.4251,2.4179,2.415,2.4194,2.4157,2.4151,2.4157,2.4132,2.4139,2.4108,2.415,2.4143,2.4112,2.4116,2.4062,2.4124,2.4083,2.4081,2.4084,2.395,2.3924,2.3827,2.3997,2.3994,2.3993,0,2.4163,2.4149,2.4076,2.408,2.4068,2.4035,2.4018,2.3993,2.3986,2.3994,2.398,2.4005,2.3963,2.4014,2.3955,2.3997,2.3982,2.3981,2.3978,2.3974,2.4031,2.3942,2.3796,2.3781,2.3972,2.3974,2.3975,0,2.4058,2.402,2.3972,2.3967,2.397,2.3946,2.3945,2.3941,2.3927,2.391,2.3901,2.3879,2.3866,2.3847,2.3865,2.3901,2.3803,2.3856,2.3806,2.3806,2.3783,2.3784,2.3631,2.3774,2.3774,2.3774,2.3775,0,2.3939,2.3892,2.3925,2.3895,2.3844,2.3873,2.3821,2.3825,2.3822,2.3792,2.3827,2.3798,2.3824,2.3796,2.381,2.3759,2.3752,2.3756,2.376,2.3752,2.3752,2.3742,2.3749,2.3771,2.3771,2.3772,2.3773,0,2.3812,2.3832,2.3783,2.3791,2.3792,2.3754,2.376,2.3731,2.3742,2.3704,2.3697,2.3712,2.3682,2.3698,2.3666,2.3675,2.3609,2.3622,2.3612,2.3615,2.3565,2.3569,2.34,2.3379,2.3536,2.3535,2.3533,0,2.3734,2.37,2.3706,2.369,2.3688,2.3662,2.3648,2.3676,2.3659,2.365,2.3622,2.3596,2.3576,2.3526,2.3532,2.3508,2.3521,2.3463,2.3517,2.3511,2.3519,2.3521,2.3517,2.3452,2.345,2.3448,2.3447,0,2.3594,2.3607,2.3587,2.3571,2.3555,2.3543,2.3533,2.3517,2.3545,2.3525,2.3496,2.3481,2.345,2.3423,2.3403,2.34,2.3427,2.3431,2.3418,2.3409,2.3405,2.3406,2.3582,2.3434,2.3435,2.3436,2.3437,2.3437,2.3489,2.3461,2.3462,2.3438,2.3435,2.3426,2.3401,2.3409,2.3387,2.3366,2.3383,2.3349,2.3343,2.3319,2.3313,2.3285,2.3308,2.3289,2.3284,2.3279,2.3272,2.3411,2.3281,2.3282,2.3282,2.3282,2.3283,0,2.3351,2.3354,2.3333,2.332,2.3302,2.3334,2.3325,2.3307,2.3277,2.3271,2.3252,2.3219,2.3193,2.3199,2.3176,2.3152,2.3164,2.3145,2.3146,2.3145,2.3253,2.3267,2.3136,2.3136,2.3136,2.3136,2.3136,2.3136,2.3277,2.3231,2.3244,2.3197,2.3199,2.3169,2.3161,2.3152,2.3148,2.3111,2.3091,2.3096,2.3094,2.3071,2.3049,2.3051,2.304,2.3016,2.3023,2.3123,2.3138,2.3151,2.3164,2.3014,2.3014,2.2917,2.2916,2.2916]}]]